DW9177 Weather Reports


Display with metric or nautical units.
time (UTC)temp
F
wind
direction
speed
MPH
gust
MPH
rain 1hr
in
rain 24hr
in
rain mn
in
humidity
%
barometer
mb
20260510193024 98 221 1.0 8.0 0.00 0.00 0.00 10 1007.5
20260510191529 96 266 0.0 9.0 0.00 0.00 0.00 11 1007.6
20260510190033 97 236 0.0 5.0 0.00 0.00 0.00 11 1007.8
20260510184520 96 259 1.0 5.0 0.00 0.00 0.00 11 1007.9
20260510183019 96 233 2.0 7.0 0.00 0.00 0.00 11 1008.0
20260510181537 95 307 1.0 4.0 0.00 0.00 0.00 11 1008.2
20260510180027 94 253 0.0 2.0 0.00 0.00 0.00 12 1008.2
20260510174514 94 207 1.0 3.0 0.00 0.00 0.00 13 1008.3
20260510173020 93 212 0.0 3.0 0.00 0.00 0.00 14 1008.4
20260510171510 91 218 1.0 5.0 0.00 0.00 0.00 15 1008.4
20260510170008 91 263 1.0 4.0 0.00 0.00 0.00 14 1008.5
20260510164505 89 191 0.0 3.0 0.00 0.00 0.00 15 1008.4
20260510163003 89 300 0.0 4.0 0.00 0.00 0.00 15 1008.4
20260510161502 88 283 1.0 4.0 0.00 0.00 0.00 14 1008.5
20260510160059 88 243 0.0 2.0 0.00 0.00 0.00 15 1008.5
20260510154555 86 144 0.0 0.0 0.00 0.00 0.00 17 1008.4
20260510153056 85 269 0.0 0.0 0.00 0.00 0.00 19 1008.5
20260510151555 84 257 0.0 0.0 0.00 0.00 0.00 20 1008.6
20260510150048 83 147 0.0 0.0 0.00 0.00 0.00 21 1008.4
20260510144549 79 204 0.0 0.0 0.00 0.00 0.00 25 1008.4
20260510143042 78 225 0.0 1.0 0.00 0.00 0.00 27 1008.4
20260510141541 76 212 0.0 0.0 0.00 0.00 0.00 27 1008.4
20260510140038 75 207 0.0 1.0 0.00 0.00 0.00 28 1008.3
20260510134546 74 231 0.0 1.0 0.00 0.00 0.00 29 1008.3
20260510133034 73 146 0.0 0.0 0.00 0.00 0.00 29 1008.1
20260510131531 69 146 0.0 0.0 0.00 0.00 0.00 31 1007.9
20260510130031 66 45 0.0 1.0 0.00 0.00 0.00 31 1007.9
20260510124529 66 15 0.0 2.0 0.00 0.00 0.00 31 1007.8
20260510123029 67 141 0.0 2.0 0.00 0.00 0.00 28 1007.7
20260510121526 68 148 0.0 2.0 0.00 0.00 0.00 27 1007.5
20260510120024 68 143 1.0 4.0 0.00 0.00 0.00 26 1007.4
20260510114524 67 135 1.0 4.0 0.00 0.00 0.00 27 1007.4
20260510113023 67 136 2.0 5.0 0.00 0.00 0.00 27 1007.2
20260510111521 66 191 2.0 4.0 0.00 0.00 0.00 30 1007.2
20260510110021 66 152 0.0 1.0 0.00 0.00 0.00 31 1007.1
20260510104515 68 82 0.0 2.0 0.00 0.00 0.00 29 1007.0
20260510103015 67 66 1.0 2.0 0.00 0.00 0.00 29 1007.0
20260510101514 67 58 0.0 1.0 0.00 0.00 0.00 30 1006.8
20260510100012 68 58 0.0 1.0 0.00 0.00 0.00 31 1006.6
20260510094510 69 25 0.0 2.0 0.00 0.00 0.00 29 1006.6
20260510093007 70 131 0.0 2.0 0.00 0.00 0.00 26 1006.6
20260510091502 72 150 0.0 3.0 0.00 0.00 0.00 24 1006.5
20260510090002 73 154 0.0 3.0 0.00 0.00 0.00 23 1006.5
20260510084602 72 149 1.0 4.0 0.00 0.00 0.00 24 1006.6
20260510083105 73 150 2.0 5.0 0.00 0.00 0.00 23 1006.7
20260510081557 74 172 0.0 2.0 0.00 0.00 0.00 23 1006.7
20260510080059 72 155 0.0 3.0 0.00 0.00 0.00 25 1006.8
20260510074617 72 160 1.0 3.0 0.00 0.00 0.00 26 1006.9
20260510073051 72 101 0.0 0.0 0.00 0.00 0.00 26 1006.8
20260510071556 74 127 0.0 0.0 0.00 0.00 0.00 24 1006.9
20260510070043 76 186 0.0 1.0 0.00 0.00 0.00 22 1006.9
20260510064602 77 219 0.0 1.0 0.00 0.00 0.00 20 1006.7
20260510063041 78 239 0.0 3.0 0.00 0.00 0.00 20 1006.5
20260510061542 77 235 1.0 4.0 0.00 0.00 0.00 21 1006.3
20260510060051 75 194 0.0 2.0 0.00 0.00 0.00 25 1006.1
20260510054540 75 101 0.0 0.0 0.00 0.00 0.00 26 1005.8
20260510053041 76 99 0.0 0.0 0.00 0.00 0.00 25 1005.4
20260510051551 76 97 0.0 0.0 0.00 0.00 0.00 25 1005.3
20260510050040 76 95 0.0 0.0 0.00 0.00 0.00 25 1005.2
20260510044541 77 95 0.0 0.0 0.00 0.00 0.00 25 1005.0
20260510043045 79 58 0.0 0.0 0.00 0.00 0.00 22 1004.9
20260510041549 80 58 0.0 0.0 0.00 0.00 0.00 20 1004.7
20260510040036 81 58 0.0 0.0 0.00 0.00 0.00 19 1004.5
20260510034536 84 307 0.0 1.0 0.00 0.00 0.00 16 1004.3
20260510033035 84 325 0.0 3.0 0.00 0.00 0.00 16 1004.1
20260510031535 84 349 0.0 0.0 0.00 0.00 0.00 16 1003.9
20260510030034 86 322 0.0 2.0 0.00 0.00 0.00 15 1003.7
20260510024542 87 321 0.0 0.0 0.00 0.00 0.00 14 1003.5
20260510023032 89 299 0.0 2.0 0.00 0.00 0.00 13 1003.4
20260510021533 90 304 1.0 4.0 0.00 0.00 0.00 12 1003.3
20260510020032 92 268 1.0 7.0 0.00 0.00 0.00 12 1003.2
20260510014532 93 313 2.0 7.0 0.00 0.00 0.00 11 1003.0
20260510013030 94 257 2.0 10.0 0.00 0.00 0.00 11 1003.0
20260510011536 94 279 5.0 9.0 0.00 0.00 0.00 11 1003.0
20260510010037 94 288 4.0 10.0 0.00 0.00 0.00 11 1002.9
20260510004528 95 321 2.0 12.0 0.00 0.00 0.00 11 1003.0
20260510003032 96 268 4.0 8.0 0.00 0.00 0.00 11 1003.0
20260510001528 97 281 4.0 9.0 0.00 0.00 0.00 11 1003.0
20260510000025 97 324 2.0 10.0 0.00 0.00 0.00 11 1003.1
20260509234526 97 342 4.0 10.0 0.00 0.00 0.00 10 1003.3
20260509233023 97 305 3.0 9.0 0.00 0.00 0.00 10 1003.4
20260509231529 97 304 4.0 15.0 0.00 0.00 0.00 11 1003.5
20260509230020 98 274 5.0 10.0 0.00 0.00 0.00 11 1003.6
20260509224517 99 328 3.0 8.0 0.00 0.00 0.00 10 1003.8
20260509223018 98 269 1.0 7.0 0.00 0.00 0.00 11 1004.1
20260509221527 98 272 4.0 13.0 0.00 0.00 0.00 10 1004.4
20260509220013 98 219 3.0 12.0 0.00 0.00 0.00 11 1004.4
20260509214509 97 277 3.0 11.0 0.00 0.00 0.00 11 1004.7
20260509213008 98 277 3.0 6.0 0.00 0.00 0.00 11 1004.9
20260509211505 97 283 4.0 8.0 0.00 0.00 0.00 11 1005.1
20260509210003 97 246 3.0 9.0 0.00 0.00 0.00 11 1005.4
20260509204603 98 252 4.0 10.0 0.00 0.00 0.00 12 1005.6
20260509203059 97 255 4.0 11.0 0.00 0.00 0.00 12 1005.8
20260509201556 97 194 2.0 8.0 0.00 0.00 0.00 13 1006.1
20260509200059 97 309 1.0 6.0 0.00 0.00 0.00 12 1006.3
20260509194551 96 279 3.0 9.0 0.00 0.00 0.00 13 1006.5